Location: Cardiff
(53.7833°N, 113.6000°W)
Time: 18:02:26
(UTC+00:00)

NOAA 15 - Pass Details

Date: 09 December 2023
Orbit: 796 x 810 km, 98.6° (Epoch: 21 February)

Event Time Altitude Azimuth Distance (km) Brightness Sun altitude
Rises 00:57:10 0° 129° (SE) 3,321 7.5 -14.1°
Reaches altitude 10° 00:59:42 10° 120° (ESE) 2,392 6.7 -14.4°
Maximum altitude 01:04:18 31° 59° (ENE) 1,381 5.3 -15.1°
Drops below altitude 10° 01:08:54 10° 359° (N) 2,397 6.9 -15.7°
Sets 01:11:28 0° 349° (N) 3,330 7.7 -16.1°
